Location: Nasgenstadt
(48.2786°N, 9.7553°E)
Time: 06:42:44
(UTC+01:00)

OTV 5 (USA 277) - Visible Passes

Search period start: 19 January 2018 00:00
Search period end: 29 January 2018 00:00
Orbit: 404 x 417 km, 43.0° (Epoch: 07 September)

Date Brightness Start Highest point End Pass type
(mag) Time Alt. Az. Time Alt. Az. Time Alt. Az.
23 Jan ? 19:17:22 10° SSW 19:18:11 13° S 19:18:11 13° S visible
24 Jan ? 18:27:14 10° S 18:28:35 12° SSE 18:29:40 11° SE visible
24 Jan ? 20:02:19 10° SW 20:02:26 11° SW 20:02:26 11° SW visible
25 Jan ? 19:11:31 10° SW 19:13:51 23° S 19:13:51 23° S visible
26 Jan ? 18:20:50 10° SSW 18:23:22 20° SSE 18:25:15 13° ESE visible
26 Jan ? 19:57:08 10° WSW 19:58:01 16° SW 19:58:01 16° SW visible
27 Jan ? 19:06:11 10° WSW 19:09:13 31° S 19:09:24 31° SSE visible
28 Jan ? 18:15:19 10° SW 18:18:16 28° SSE 18:20:46 13° ESE visible
28 Jan ? 19:52:07 10° WSW 19:53:32 20° SW 19:53:32 20° SW visible
